Flag for Switzerland Weather past 2 weeks in Thusis, Graubünden, Switzerland

Now
62 °F

Passing clouds.


Feels Like: 62 °F
Forecast: 46 / 65 °F
Wind: 1 mph from North

Location: Chur-Ems

Current Time: Sep 20, 2014 at 8:58:27 PM

Latest Report: Sep 20, 2014 at 8:00 PM


Visibility: 13 mi

Pressure: 30.02 "Hg

Humidity: 90%

Dew point: 59 °F

Location of ThusisLocation

Historic Weather in Thusis — Graph

°F

Thusis temperature yesterday

Maximum temperature yesterday: 75 °F (at 2:00 PM)
Minimum temperature yesterday: 62 °F (at 6:00 AM)
Average temperature yesterday: 67 °F

Past Weeks' High & Low Weather Summary

 TemperatureHumidityPressure
High77 °F (Sep 7, 4:00 PM)96% (Sep 12, 6:00 AM)30.16 "Hg (Sep 12, 6:00 AM)
Low50 °F (Sep 12, 6:00 AM)41% (Sep 18, 12:00 PM)29.81 "Hg (Sep 6, 4:00 PM)
Average62 °F74%29.99 "Hg
* Reported Sep 5 3:00 PM — Sep 20 3:00 PM, Thusis, Weather by CustomWeather, © 2014

Note: Actual official high and low records may vary slightly from our data, if they occured in-between our weather recording intervals... More about our weather records

Advertising

Thusis weather history for previous 24 hours

 ConditionsComfort  
Time TempWeatherWind HumidityBarometerVisibility
3:00 PM
Sep 20
69 °FMild.12 mph61%29.97 "HgN/A
2:00 PM69 °FPartly sunny.3 mph63%29.98 "Hg16 mi
1:00 PM66 °FMild.2 mph63%30.01 "HgN/A
12:00 PM64 °FMild.1 mph68%30.03 "HgN/A
11:00 AM62 °FOvercast.2 mph72%30.04 "Hg16 mi
10:00 AM61 °FCool.3 mph73%30.03 "HgN/A
9:00 AM58 °FCool.1 mph80%30.03 "HgN/A
8:00 AM59 °FScattered clouds.3 mph74%30.03 "Hg16 mi
7:00 AM58 °FCool.1 mph78%30.02 "HgN/A
6:00 AM59 °FCool.5 mph76%30.00 "HgN/A
5:00 AM62 °FClear.15 mph69%30.01 "Hg12 mi
4:00 AM62 °FCool.10 mph68%30.01 "HgN/A
3:00 AM64 °FMild.9 mph64%30.01 "HgN/A
2:00 AM61 °FPassing clouds.6 mph72%30.02 "Hg12 mi
1:00 AM60 °FCool.3 mph75%30.03 "HgN/A
12:00 AM64 °FMild.7 mph66%30.03 "HgN/A
11:00 PM
Sep 19
64 °FClear.6 mph66%30.02 "Hg12 mi
10:00 PM64 °FMild.6 mph64%30.01 "HgN/A
9:00 PM65 °FMild.7 mph66%30.00 "HgN/A
8:00 PM68 °FPassing clouds.1 mph57%29.97 "Hg12 mi
Weather by CustomWeather, © 2014

See weather overviewHow to use our weather pages